User: anonymous
Location: Vancouver
(49.2500°N, 123.1330°W)
Time: 08:28:04
(UTC-07:00)
Language:

ERS-2 - Orbit

View from above orbital plane
View from above orbital plane
View from above satellite
View from above satellite

Ground track
Ground track

The orbit data is extracted from the following two-line orbital elements,

1 23560U 95021A   14107.15926814  .00006801  00000-0  42716-3 0  9664
2 23560 098.5693 300.3021 0003726 236.8079 243.7401 15.09654172    56
Epoch (UTC): 17 April 2014 03:49:20
Eccentricity: 0.0003726
inclination: 98.5693°
perigee height: 534 km
apogee height: 540 km
right ascension of ascending node: 300.3021°
argument of perigee: 236.8079°
revolutions per day: 15.09654172
mean anomaly at epoch: 243.7401°
orbit number at epoch: 5

The dashed part of the orbit path shows where the satellite is in the earth's shadow,  

DLR